RYR13LA EPKT-EDLW

Flight info

Callsign RYR13LA
Flight time N/A
Altitude 36000
Route ADADO DCT UTEVO DCT RAPET T843 DEMAB T842 ADEMI ADEMI2A
Aircraft B738/M-SDE2E3FGHIRWXY/LB1

Departure

Time 2026-04-29 19:08
Airport Katowice Wojciech Korfanty International Airport (EPKT)

Arrival

Time N/A
Airport Dortmund Airport (EDLW)
Time Latitude Longitude Altitude Speed Heading
2026-04-29 18:44 50.47152 19.07091 982 ft 0 kts 180°
2026-04-29 18:58 50.47157 19.07091 981 ft 2 kts 180°
2026-04-29 18:58 50.47172 19.07091 981 ft 2 kts 180°
2026-04-29 18:59 50.47187 19.07094 981 ft 2 kts 197°
2026-04-29 18:59 50.47201 19.07102 981 ft 2 kts 208°
2026-04-29 18:59 50.47211 19.07111 981 ft 2 kts 218°
2026-04-29 18:59 50.47219 19.07123 981 ft 2 kts 227°
2026-04-29 19:00 50.47228 19.07141 981 ft 2 kts 240°
2026-04-29 19:00 50.47234 19.07163 982 ft 2 kts 253°
2026-04-29 19:00 50.47237 19.07186 982 ft 1 kts 266°
2026-04-29 19:00 50.47237 19.07196 981 ft 1 kts 271°
2026-04-29 19:01 50.47237 19.07200 981 ft 0 kts 270°
2026-04-29 19:03 50.47237 19.07188 981 ft 5 kts 270°
2026-04-29 19:03 50.47237 19.07083 980 ft 10 kts 270°
2026-04-29 19:03 50.47237 19.06940 978 ft 17 kts 270°
2026-04-29 19:04 50.47236 19.06750 978 ft 16 kts 269°
2026-04-29 19:04 50.47298 19.06635 976 ft 15 kts 356°
2026-04-29 19:04 50.47404 19.06622 975 ft 15 kts 337°
2026-04-29 19:04 50.47430 19.06478 974 ft 15 kts 268°
2026-04-29 19:05 50.47429 19.06272 973 ft 19 kts 270°
2026-04-29 19:05 50.47434 19.06054 971 ft 19 kts 287°
2026-04-29 19:05 50.47503 19.05989 969 ft 0 kts
2026-04-29 19:07 50.47510 19.05989 969 ft 4 kts
2026-04-29 19:07 50.47572 19.05999 968 ft 21 kts 26°
2026-04-29 19:07 50.47607 19.06806 972 ft 102 kts 91°
2026-04-29 19:07 50.47607 19.08273 993 ft 160 kts 89°
2026-04-29 19:08 50.47593 19.10066 1552 ft 172 kts 89°
2026-04-29 19:08 50.47577 19.11965 2269 ft 180 kts 89°
2026-04-29 19:08 50.47550 19.13883 3053 ft 177 kts 86°
2026-04-29 19:08 50.47551 19.15856 3554 ft 186 kts 87°
2026-04-29 19:09 50.47368 19.17894 4053 ft 198 kts 104°
2026-04-29 19:09 50.46569 19.19646 4825 ft 201 kts 137°
2026-04-29 19:09 50.45351 19.20697 5472 ft 203 kts 150°
2026-04-29 19:09 50.44033 19.21527 6046 ft 207 kts 157°
2026-04-29 19:10 50.42677 19.22120 6739 ft 202 kts 166°
2026-04-29 19:10 50.41255 19.22189 7193 ft 212 kts 180°
2026-04-29 19:10 50.39719 19.22103 7460 ft 229 kts 178°
2026-04-29 19:10 50.38076 19.22089 7747 ft 247 kts 177°
2026-04-29 19:11 50.36312 19.22099 8123 ft 261 kts 177°
2026-04-29 19:11 50.34436 19.21935 8535 ft 276 kts 188°
2026-04-29 19:11 50.32602 19.20933 8991 ft 289 kts 211°
2026-04-29 19:11 50.31040 19.18866 9421 ft 300 kts 232°
2026-04-29 19:12 50.29885 19.16140 10084 ft 301 kts 245°
2026-04-29 19:12 50.29199 19.13076 10683 ft 301 kts 265°
2026-04-29 19:12 50.29092 19.09777 11038 ft 312 kts 275°
2026-04-29 19:12 50.29131 19.07458 11282 ft 322 kts 276°
2026-04-29 19:13 50.29234 19.02665 11708 ft 342 kts 275°
2026-04-29 19:13 50.29284 18.98880 12127 ft 354 kts 274°
2026-04-29 19:13 50.29308 18.95060 12748 ft 359 kts 274°
2026-04-29 19:13 50.29303 18.91084 13401 ft 363 kts 273°
2026-04-29 19:14 50.29259 18.87178 13983 ft 368 kts 272°
2026-04-29 19:14 50.29192 18.83160 14599 ft 371 kts 272°
2026-04-29 19:14 50.29120 18.79099 15164 ft 376 kts 272°
2026-04-29 19:14 50.29063 18.74988 15748 ft 380 kts 274°
2026-04-29 19:15 50.29053 18.70814 16294 ft 384 kts 275°
2026-04-29 19:15 50.29071 18.66679 16821 ft 388 kts 275°
2026-04-29 19:15 50.29097 18.62411 17332 ft 393 kts 275°
2026-04-29 19:15 50.29120 18.58153 17854 ft 397 kts 275°
2026-04-29 19:16 50.29137 18.53796 18390 ft 401 kts 275°
2026-04-29 19:16 50.29148 18.49444 18893 ft 405 kts 275°
2026-04-29 19:16 50.29102 18.44990 19332 ft 412 kts 272°
2026-04-29 19:16 50.28856 18.40537 19580 ft 420 kts 267°
2026-04-29 19:17 50.28419 18.36053 20289 ft 419 kts 265°
2026-04-29 19:17 50.27891 18.31502 20749 ft 424 kts 263°
2026-04-29 19:17 50.27332 18.26989 21244 ft 427 kts 263°
2026-04-29 19:17 50.26760 18.22439 21699 ft 430 kts 263°
2026-04-29 19:18 50.26185 18.17846 22177 ft 433 kts 263°
2026-04-29 19:18 50.25805 18.14786 22435 ft 436 kts 263°
2026-04-29 19:18 50.25038 18.08552 23046 ft 439 kts 264°
2026-04-29 19:18 50.24467 18.03878 23474 ft 442 kts 264°
2026-04-29 19:19 50.23891 17.99162 23907 ft 444 kts 264°
2026-04-29 19:19 50.23318 17.94451 24287 ft 448 kts 264°
2026-04-29 19:19 50.22732 17.89632 24645 ft 451 kts 264°
2026-04-29 19:19 50.22144 17.84804 25033 ft 453 kts 264°
2026-04-29 19:20 50.21568 17.80069 25451 ft 454 kts 265°
2026-04-29 19:20 50.21115 17.75118 25747 ft 454 kts 270°
2026-04-29 19:20 50.20902 17.70262 26121 ft 453 kts 274°
2026-04-29 19:20 50.20828 17.65353 26574 ft 451 kts 276°
2026-04-29 19:21 50.20824 17.60437 26896 ft 453 kts 277°
2026-04-29 19:21 50.20851 17.55555 27160 ft 457 kts 277°
2026-04-29 19:21 50.20885 17.50567 27532 ft 458 kts 277°
2026-04-29 19:21 50.20946 17.45653 27814 ft 460 kts 278°
2026-04-29 19:22 50.21042 17.40631 28153 ft 462 kts 278°
2026-04-29 19:22 50.21151 17.35645 28491 ft 463 kts 278°
2026-04-29 19:22 50.21260 17.30676 28712 ft 467 kts 278°
2026-04-29 19:22 50.21365 17.25727 28944 ft 471 kts 278°
2026-04-29 19:23 50.21463 17.20809 29306 ft 470 kts 278°
2026-04-29 19:23 50.21554 17.15709 29658 ft 471 kts 278°
2026-04-29 19:23 50.21639 17.10684 29839 ft 475 kts 277°
2026-04-29 19:23 50.21721 17.05525 30135 ft 476 kts 278°
2026-04-29 19:24 50.21798 17.00391 30396 ft 479 kts 277°
2026-04-29 19:24 50.21871 16.95269 30766 ft 477 kts 278°
2026-04-29 19:24 50.21939 16.90087 31163 ft 474 kts 277°
2026-04-29 19:24 50.22001 16.85027 31634 ft 468 kts 278°
2026-04-29 19:25 50.22058 16.80087 32039 ft 464 kts 277°
2026-04-29 19:25 50.22115 16.75020 32403 ft 461 kts 277°
2026-04-29 19:25 50.22172 16.70096 32615 ft 462 kts 277°
2026-04-29 19:25 50.22229 16.65104 32874 ft 462 kts 277°
2026-04-29 19:26 50.22284 16.60075 33157 ft 460 kts 277°
2026-04-29 19:26 50.22336 16.55163 33431 ft 459 kts 277°
2026-04-29 19:26 50.22385 16.50245 33734 ft 457 kts 277°
2026-04-29 19:26 50.22431 16.45297 33960 ft 457 kts 277°
2026-04-29 19:27 50.22476 16.40379 34196 ft 456 kts 277°
2026-04-29 19:27 50.22520 16.35582 34357 ft 458 kts 277°
2026-04-29 19:27 50.22564 16.30653 34383 ft 458 kts 276°
2026-04-29 19:28 50.22638 16.21068 34399 ft 452 kts 276°
2026-04-29 19:28 50.22703 16.11801 34406 ft 455 kts 276°
2026-04-29 19:29 50.22762 16.02030 34408 ft 453 kts 276°
2026-04-29 19:29 50.22814 15.92156 34418 ft 452 kts 276°
2026-04-29 19:30 50.22860 15.82330 34412 ft 454 kts 276°
2026-04-29 19:30 50.22895 15.72581 34425 ft 456 kts 276°
2026-04-29 19:31 50.22923 15.62747 34437 ft 454 kts 277°
2026-04-29 19:31 50.22941 15.52959 34428 ft 455 kts 276°
2026-04-29 19:32 50.22948 15.43083 34414 ft 455 kts 276°
2026-04-29 19:32 50.22950 15.33243 34426 ft 455 kts 275°
2026-04-29 19:33 50.22943 15.23423 34443 ft 456 kts 275°
2026-04-29 19:33 50.22926 15.13590 34437 ft 455 kts 275°
2026-04-29 19:34 50.22902 15.03677 34448 ft 457 kts 275°
2026-04-29 19:34 50.22868 14.93810 34436 ft 456 kts 276°
2026-04-29 19:35 50.22828 14.83954 34422 ft 456 kts 276°
2026-04-29 19:35 50.22781 14.74068 34425 ft 458 kts 276°
2026-04-29 19:36 50.22723 14.64176 34423 ft 457 kts 275°
2026-04-29 19:36 50.22657 14.54297 34419 ft 459 kts 276°
2026-04-29 19:37 50.22585 14.44459 34418 ft 459 kts 275°
2026-04-29 19:37 50.22506 14.34601 34427 ft 460 kts 275°
2026-04-29 19:38 50.22413 14.24707 34402 ft 460 kts 275°
2026-04-29 19:38 50.22310 14.14732 34414 ft 461 kts 275°
2026-04-29 19:39 50.22201 14.04677 34427 ft 462 kts 275°
2026-04-29 19:39 50.22086 13.94657 34418 ft 463 kts 275°
2026-04-29 19:40 50.21956 13.84662 34411 ft 462 kts 275°
2026-04-29 19:40 50.21821 13.74632 34406 ft 463 kts 275°
2026-04-29 19:41 50.21679 13.64560 34411 ft 464 kts 275°
2026-04-29 19:41 50.21528 13.54566 34416 ft 464 kts 275°
2026-04-29 19:42 50.21366 13.44443 34416 ft 466 kts 275°
2026-04-29 19:42 50.21193 13.34349 34406 ft 465 kts 274°
2026-04-29 19:43 50.21014 13.24329 34403 ft 466 kts 274°
2026-04-29 19:43 50.20828 13.14219 34396 ft 467 kts 274°
2026-04-29 19:44 50.20630 13.04101 34392 ft 467 kts 274°
2026-04-29 19:44 50.20423 12.93988 34406 ft 467 kts 274°
2026-04-29 19:45 50.20208 12.83919 34401 ft 465 kts 274°
2026-04-29 19:45 50.19987 12.73879 34410 ft 469 kts 274°
2026-04-29 19:46 50.19754 12.63730 34398 ft 469 kts 274°
2026-04-29 19:46 50.19518 12.53665 34487 ft 472 kts 274°
2026-04-29 19:46 50.19393 12.48647 34954 ft 466 kts 274°
2026-04-29 19:47 50.19263 12.43589 35243 ft 464 kts 274°
2026-04-29 19:47 50.19199 12.38614 35470 ft 460 kts 277°
2026-04-29 19:47 50.19384 12.33758 35684 ft 453 kts 282°
2026-04-29 19:47 50.19823 12.28972 35853 ft 450 kts 286°
2026-04-29 19:48 50.20444 12.24191 36034 ft 447 kts 288°
2026-04-29 19:48 50.20893 12.21160 36197 ft 444 kts 289°
2026-04-29 19:48 50.21886 12.14885 36376 ft 444 kts 290°
2026-04-29 19:49 50.23386 12.05666 36380 ft 441 kts 290°
2026-04-29 19:49 50.24853 11.96510 36395 ft 441 kts 290°
2026-04-29 19:50 50.26313 11.87279 36395 ft 442 kts 290°
2026-04-29 19:50 50.27750 11.78065 36381 ft 441 kts 290°
2026-04-29 19:51 50.29182 11.68796 36393 ft 443 kts 290°
2026-04-29 19:51 50.30611 11.59475 36368 ft 443 kts 290°
2026-04-29 19:52 50.32013 11.50159 36363 ft 444 kts 290°
2026-04-29 19:52 50.33394 11.40847 36359 ft 444 kts 290°
2026-04-29 19:53 50.34774 11.31471 36371 ft 447 kts 289°
2026-04-29 19:53 50.35457 11.26825 36222 ft 452 kts 289°
2026-04-29 19:53 50.36160 11.22027 35879 ft 453 kts 289°
2026-04-29 19:53 50.36851 11.17284 35507 ft 450 kts 290°
2026-04-29 19:54 50.38200 11.07980 34683 ft 449 kts 290°
2026-04-29 19:54 50.38889 11.03222 34158 ft 451 kts 290°
2026-04-29 19:54 50.39578 10.98478 33653 ft 456 kts 290°
2026-04-29 19:55 50.40275 10.93659 33134 ft 459 kts 290°
2026-04-29 19:55 50.40969 10.88842 32614 ft 462 kts 290°
2026-04-29 19:55 50.41680 10.83879 32235 ft 464 kts 290°
2026-04-29 19:55 50.42383 10.78963 31589 ft 470 kts 289°
2026-04-29 19:56 50.43094 10.73971 30884 ft 471 kts 290°
2026-04-29 19:56 50.43801 10.68990 30151 ft 472 kts 290°
2026-04-29 19:56 50.44508 10.64043 29417 ft 471 kts 290°
2026-04-29 19:56 50.45231 10.59010 28673 ft 471 kts 290°
2026-04-29 19:57 50.45947 10.54036 27939 ft 470 kts 289°
2026-04-29 19:57 50.46421 10.50733 27454 ft 470 kts 290°
2026-04-29 19:57 50.47372 10.44092 26479 ft 469 kts 289°
2026-04-29 19:57 50.48066 10.39183 25757 ft 467 kts 289°
2026-04-29 19:58 50.48761 10.34226 25017 ft 462 kts 288°
2026-04-29 19:58 50.49432 10.29382 24469 ft 449 kts 289°
2026-04-29 19:58 50.50070 10.24700 24357 ft 427 kts 289°
2026-04-29 19:58 50.50663 10.20313 24353 ft 408 kts 289°
2026-04-29 19:59 50.51257 10.15957 24346 ft 405 kts 289°
2026-04-29 19:59 50.51868 10.11649 24344 ft 408 kts 291°
2026-04-29 19:59 50.52723 10.07450 24339 ft 399 kts 300°
2026-04-29 19:59 50.53903 10.03542 24338 ft 391 kts 307°
2026-04-29 20:00 50.55334 10.00001 24341 ft 386 kts 314°
2026-04-29 20:00 50.56921 9.96996 24337 ft 378 kts 322°
2026-04-29 20:00 50.58835 9.94214 24338 ft 369 kts 329°
2026-04-29 20:00 50.60863 9.91880 24342 ft 364 kts 335°
2026-04-29 20:01 50.62767 9.90146 24346 ft 361 kts 340°
2026-04-29 20:01 50.66775 9.87382 24350 ft 355 kts 346°
2026-04-29 20:01 50.66798 9.87367 24350 ft 355 kts 346°